{"data":{"norad_id":68211,"intl_designator":"2026-053E","name":"STARLINK-37120","alt_names":[],"object_type":"PAYLOAD","status":"ACTIVE","operator":null,"country":"US","launch_date":"2026-03-17","launch_site_code":"AFWTR","launch_vehicle":null,"mission":null,"orbit_class":"UNKNOWN","rcs_meters":null,"size_class":null,"mass_kg":null,"dimensions":null,"purposes":["comms"],"wikipedia_slug":null,"has_3d_model":false,"image_url":null,"decayed_at":null,"tle_current":{"epoch":"2026-09-18T23:00:33.744960Z","epoch_age_seconds":185006,"freshness":"STALE","line1":"1 68211U 26053E   26261.95872390  .00014579  00000+0  45287-3 0  9998","line2":"2 68211  97.2851 135.7035 0002415  95.4941 264.6577 15.33454453 29814","mean_motion":15.33454453,"eccentricity":0.0002415,"inclination_deg":97.2851,"raan_deg":135.7035,"arg_perigee_deg":95.4941,"mean_anomaly_deg":264.6577,"bstar":0.00045287,"rev_number":2981,"period_min":93.90562577081,"perigee_km":463.8623071755,"apogee_km":467.16779111523,"semimajor_km":6843.6520491454,"source":"CELESTRAK","updated_at":"2026-09-20T09:00:43.833242Z"}}}